Location: Horn� Pr�any
(48.6996°N, 19.0833°E)
Time: 06:23:37
(UTC+00:00)

Daily predictions for brighter satellites

Satellite Brightness Start Highest point End
(mag) Time Altitude Azimuth Time Altitude Azimuth Time Altitude Azimuth
Cosmos 2082 Rocket 2.2 18:23:08 10° SSW 18:28:44 63° ESE 18:34:21 10° NNE
MetOp-A 4.2 18:25:07 10° SSE 18:30:28 77° ENE 18:35:50 10° NNW
Sich 1 3.1 18:26:35 10° S 18:31:01 76° E 18:35:28 10° NNE
Cosmos 2369 4.3 18:25:32 10° NNW 18:31:12 61° WSW 18:36:48 10° S
MONITOR-E 3.5 18:31:40 10° SSE 18:33:59 60° ENE 18:36:19 10° N
COSMOS 2406 4.1 18:29:35 10° SW 18:35:14 57° WNW 18:40:54 10° NNE
Cosmos 2322 Rocket 3.3 18:30:57 10° NNW 18:35:59 31° NE 18:41:01 10° ESE
Cosmos 2278 3.9 18:31:48 10° NNW 18:37:33 79° WSW 18:43:13 10° SSE
H-2A R/B 3.6 18:34:57 10° SSW 18:39:38 37° W 18:44:15 10° NNW
USA 186 3.0 18:39:22 10° SSW 18:41:20 27° W 18:43:22 10° NW
Cosmos 389 Rocket 4.3 18:38:15 10° NNW 18:41:23 32° W 18:44:31 10° SSW
Meteor 1-4 Rocket 2.4 18:39:23 10° N 18:42:51 77° ENE 18:46:18 10° SSE
Cosmos 1862 Rocket 3.8 18:39:16 10° N 18:43:38 51° ENE 18:47:55 10° SSE
ATLAS 3B R/B 4.0 18:40:36 10° SE 18:44:03 15° ESE 18:47:30 10° ENE
Cosmos 2360 Rocket 3.7 18:40:30 10° N 18:44:58 23° NE 18:49:23 10° E
Cosmos 676 Rocket 4.1 18:40:43 10° S 18:45:57 62° ESE 18:51:15 10° NNE
Meteor 2-20 4.5 18:40:28 10° N 18:46:40 80° E 18:52:48 10° SSE
USA 234 4.1 18:43:39 10° E 18:49:51 47° NNE 18:56:03 10° WNW
Terra 3.9 18:50:15 10° E 18:52:21 13° NE 18:54:29 10° NNE
Cosmos 1934 Rocket 4.1 18:46:12 10° S 18:52:29 67° E 18:58:47 10° NNE
Cosmos 1238 Rocket 3.3 18:51:42 11° SE 18:53:59 24° E 18:56:30 10° NE
Cosmos 1980 Rocket 2.6 18:48:47 10° NNW 18:54:26 66° WSW 18:59:59 10° SSE
Cosmos 468 Rocket 4.3 18:49:31 10° NNW 18:54:44 53° ENE 18:59:34 12° SE
USA 276 2.1 18:51:52 10° WNW 18:55:04 88° NNE 18:57:49 13° ESE
X-37B 1.4 18:52:52 10° WSW 18:55:49 37° S 18:58:07 15° SE
Cosmos 44 3.9 18:53:07 10° NNW 18:57:50 46° NE 19:02:11 13° ESE
CZ-2C R/B 3.7 18:53:19 10° NNE 18:57:53 61° ESE 19:02:19 10° S
Lacrosse 5 1.9 18:53:04 10° NW 18:58:11 86° SW 19:02:39 13° SE
Resurs 01 Rocket 1.6 18:57:49 10° SSE 19:02:12 71° ENE 19:06:39 10° N
Cosmos 1833 Rocket 3.8 18:58:54 10° SW 19:04:19 48° NW 19:09:48 10° NNE
Cosmos 1602 4.5 19:02:38 10° SSE 19:06:08 34° E 19:09:43 10° NNE
Cosmos 1697 Rocket 4.4 19:01:41 10° NW 19:06:29 30° WSW 19:11:17 10° SSW
GP-B 3.4 19:02:30 10° NNE 19:06:50 49° E 19:11:08 10° SSE
SPOT 3 Rocket 3.7 19:01:56 10° SSE 19:07:08 78° WSW 19:12:21 10° NNW
USA 238 DEB 3.6 19:01:08 10° SSW 19:07:44 76° SE 19:14:40 10° NE
USA 238 3.6 19:01:14 10° SSW 19:07:51 76° SE 19:14:46 10° NE
Cosmos 1867 4.0 19:04:25 10° SW 19:09:51 70° NW 19:15:20 10° NE
Cosmos 1933 Rocket 4.0 19:06:27 10° SSE 19:10:38 43° E 19:14:51 10° NNE
Cosmos 1666 Rocket 4.0 19:06:48 10° SSW 19:11:05 64° W 19:15:26 10° N
CENTAUR R/B 2.6 19:05:39 10° SSW 19:11:22 52° ESE 19:18:06 10° NE
Cosmos 1954 Rocket 4.2 19:08:49 10° SSW 19:14:09 82° WNW 19:19:31 10° NNE
Meteor 1-20 Rocket 4.3 19:08:45 10° S 19:14:31 66° E 19:20:20 10° NNE
Spot 2 Rocket 3.9 19:11:05 15° SE 19:15:09 49° ENE 19:20:04 10° N
Cosmos 405 Rocket 2.7 19:15:18 10° S 19:18:54 54° E 19:22:36 10° NNE
Cosmos 1741 Rocket 4.2 19:16:59 10° S 19:22:01 48° ESE 19:27:06 10° NNE
Okean 1-7 3.5 19:18:23 10° N 19:22:30 41° ENE 19:24:59 21° SE
Cosmos 1515 4.2 19:18:58 10° N 19:22:38 42° ENE 19:24:41 22° SE
Cosmos 2333 Rocket 3.9 19:24:43 10° N 19:29:11 22° NE 19:33:20 11° E
Cosmos 1763 Rocket 3.5 19:23:51 10° NNW 19:29:13 86° ENE 19:33:12 18° SSE
Cosmos 1437 Rocket 2.8 19:26:09 10° N 19:29:54 55° ENE 19:31:55 24° SE
Cosmos 1570 Rocket 4.4 19:25:58 10° NNW 19:31:12 52° ENE 19:34:31 22° SE
FALCON 9 DEB 4.3 19:29:06 10° W 19:32:28 43° N 19:35:50 10° ENE
Cosmos 1703 Rocket 3.6 19:28:16 10° N 19:32:35 59° ENE 19:35:10 23° SSE
OBJECT-B 2.9 19:31:10 10° SSW 19:33:57 25° W 19:36:45 10° NW
H-2A R/B 3.4 19:30:19 10° NNE 19:34:26 64° ESE 19:38:18 12° S
Cosmos 2084 Rocket 3.3 19:32:14 10° SSW 19:36:24 67° SE 19:40:41 10° NE
Cosmos 1633 Rocket 4.4 19:33:51 10° SW 19:38:03 42° WNW 19:42:15 10° N
Cosmos 1184 Rocket 4.4 19:35:49 10° SW 19:38:54 36° WNW 19:42:01 10° N
Landsat 7 3.8 19:36:27 20° SSE 19:39:46 79° ENE 19:44:34 10° NNW
SPOT 5 3.4 19:38:25 24° ESE 19:40:23 36° ENE 19:44:29 10° N
Cosmos 921 Rocket 4.1 19:37:30 10° NW 19:41:25 39° WSW 19:45:04 11° S
Cosmos 2208 Rocket 4.3 19:37:27 10° NNW 19:42:37 54° ENE 19:45:27 25° SE
USA 245 4.5 19:37:21 16° SSE 19:42:41 86° ENE 19:48:37 10° NNW
MetOp-B 4.3 19:40:52 15° S 19:45:24 74° WSW 19:50:48 10° NNW
Meteor 1-19 Rocket 4.2 19:45:31 10° NNW 19:50:59 83° W 19:54:58 19° S
Cosmos 1605 Rocket 4.2 19:46:45 10° SSW 19:52:50 71° W 19:58:56 10° N
CZ-2C R/B 4.5 19:48:36 10° N 19:53:08 31° WNW 19:57:41 10° SW
Okean 1 3.7 19:49:30 10° NNW 19:53:31 61° W 19:56:09 20° S
ERBS 4.4 19:52:22 10° NW 19:55:05 22° NNE 19:57:19 12° ENE
Cosmos 2100 Rocket 4.1 19:52:15 22° SSE 19:56:06 54° E 20:02:05 10° NNE
USA 267 3.4 19:49:54 10° ENE 19:56:14 49° SE 20:02:31 10° SSW
NOSS 3-2 (A) 4.1 19:52:18 10° WSW 19:58:03 59° NW 20:04:45 10° NE
Cosmos 2219 Rocket 3.5 19:54:39 10° NNW 19:59:36 29° NE 20:02:41 18° E
Meteor 2-4 Rocket 3.6 19:54:02 10° N 19:59:39 74° ENE 20:02:35 28° SSE
Lacrosse 4 Rocket 2.9 20:01:22 21° E 20:01:22 21° E 20:03:26 10° ENE
Cosmos 2173 Rocket 4.1 19:56:36 24° SSE 20:00:12 54° E 20:06:08 10° NNE
Cosmos 540 Rocket 3.4 19:56:55 10° NNW 20:02:09 85° ENE 20:04:39 31° SSE
SL-16 R/B 2.5 19:57:28 10° NNW 20:03:04 62° WSW 20:06:28 24° S
SL-4 R/B 2.4 20:01:32 10° WNW 20:05:22 53° N 20:07:24 23° ENE
BREEZE-M DEB (TANK) 2.9 20:02:50 10° W 20:05:54 82° N 20:15:20 10° E
Cosmos 2242 Rocket 4.4 20:01:51 10° NNW 20:06:06 47° W 20:09:08 18° SSW
SL-27 R/B 2.5 20:04:28 20° SSW 20:06:39 70° WNW 20:09:58 10° NNE
NOSS 3-2 (C) 3.7 20:02:48 10° SW 20:08:36 73° NW 20:15:19 10° NE
Cosmos 2322 4.3 20:07:35 10° NNW 20:13:03 46° NE 20:15:30 29° ESE
Cosmos 1459 Rocket 4.0 20:09:17 25° S 20:13:08 67° E 20:19:29 10° NNE
BREEZE-M DEB (TANK) 3.0 20:11:08 10° W 20:12:31 33° W 20:12:31 33° W
Cosmos 2082 Rocket 4.3 20:08:24 10° WSW 20:13:16 28° NW 20:18:08 10° NNE
Cosmos 1242 Rocket 3.8 20:13:40 10° N 20:16:53 28° ENE 20:16:53 28° ENE
ERS-1 Rocket 2.9 20:16:14 34° SSE 20:18:28 86° WSW 20:23:33 10° NNW
Meteor 1-13 Rocket 4.2 20:13:17 10° N 20:18:48 67° ENE 20:20:56 37° SE
SAR-Lupe-2 3.5 20:16:06 10° NNE 20:19:40 61° ESE 20:19:45 61° ESE
Cosmos 2322 Rocket 2.6 20:14:48 10° NW 20:20:23 56° WSW 20:23:15 28° S
Cosmos 2016 Rocket 4.2 20:17:44 32° SSE 20:20:26 53° E 20:26:37 10° NNE
SPOT 1/Viking Rocket 4.1 20:23:32 24° SSW 20:26:31 52° W 20:31:39 10° NNW
Cosmos 1500 3.2 20:25:36 48° SSW 20:26:33 76° W 20:30:19 10° N
Cosmos 1536 3.5 20:27:22 38° E 20:27:22 38° E 20:30:45 10° NNE
Cosmos 2221 Rocket 3.6 20:22:42 10° N 20:27:12 67° E 20:28:09 51° SE
Cosmos 841 Rocket 3.8 20:22:33 10° NNW 20:27:43 59° WSW 20:29:56 33° S
Terra 1.7 20:27:56 46° SSE 20:29:19 79° ENE 20:34:07 10° NNW
Cosmos 2360 Rocket 2.2 20:23:58 10° NNW 20:29:41 83° WSW 20:31:48 40° SSE
USA 276 4.0 20:28:25 10° W 20:30:10 22° WSW 20:30:10 22° WSW
Okean 3 3.4 20:26:53 10° N 20:31:13 89° ENE 20:32:07 56° S
X-37B 3.3 20:29:53 10° WSW 20:30:22 12° WSW 20:30:22 12° WSW
USA 234 3.2 20:28:59 30° ESE 20:32:31 84° NNE 20:39:05 10° NW
ATLAS 3B R/B 2.5 20:27:01 10° SSW 20:33:34 71° SE 20:40:11 10° NE
Cosmos 2237 4.3 20:28:09 10° NNW 20:33:51 72° WSW 20:35:58 39° S
Cosmos 1666 2.8 20:37:36 60° ENE 20:37:36 60° ENE 20:41:02 10° NNE
COSMOS 2487 3.8 20:39:02 29° NE 20:39:02 29° NE 20:40:59 10° NNE
Cosmos 44 4.5 20:34:30 10° NW 20:38:59 34° WSW 20:40:36 28° SSW
Resurs 01 Rocket 4.2 20:36:49 10° WSW 20:39:13 14° W 20:41:37 10° NW
Iridium 4 Rocket 2.8 20:38:44 60° S 20:39:28 89° W 20:43:38 10° N
Lacrosse 5 3.6 20:36:55 10° WNW 20:40:33 20° SW 20:41:50 18° SW
CARTOSAT-1 4.2 20:40:31 36° SSW 20:41:49 49° W 20:46:02 10° NNW
Cosmos 1378 4.3 20:43:43 10° N 20:46:39 33° NE 20:46:39 33° NE
Cosmos 2233 Rocket 4.3 20:49:33 41° SE 20:51:00 49° E 20:57:03 10° NNE
Cosmos 2061 Rocket 3.9 20:50:45 38° S 20:53:22 88° ESE 20:59:37 10° N
COSMOS 2428 3.0 20:50:34 10° NNW 20:56:16 59° ENE 20:57:48 44° ESE
Cosmos 1802 Rocket 4.1 20:54:58 29° SSW 20:58:25 74° W 21:04:46 10° N
Cosmos 1743 4.2 21:00:17 28° NE 21:00:17 28° NE 21:02:40 10° NNE
Cosmos 2237 Rocket 3.5 20:55:37 10° NNW 21:00:35 30° NE 21:02:46 23° E
CENTAUR R/B 3.7 20:56:10 10° WSW 21:02:11 47° NW 21:09:19 10° NE
Cosmos 44 Rocket 3.4 20:58:27 10° NW 21:03:27 71° NE 21:04:15 59° ESE
Cosmos 1816 Rocket 4.5 21:00:52 10° NNW 21:07:08 79° W 21:09:03 47° S
FALCON 9 DEB 4.2 21:06:31 10° WNW 21:09:36 44° N 21:09:36 44° N
Cosmos 1271 Rocket 3.4 21:06:17 10° N 21:09:24 48° NE 21:09:24 48° NE
Cosmos 1674 Rocket 3.4 21:09:37 10° N 21:13:54 86° NW 21:13:54 86° NW
Cosmos 2333 Rocket 2.1 21:08:27 10° NNW 21:14:16 89° WSW 21:15:19 61° SSE
ATLAS 5 CENTAUR R/B 2.5 21:11:38 10° NW 21:14:39 62° SW 21:14:58 60° SSW
Cosmos 1503 Rocket 4.4 21:17:56 47° E 21:17:56 47° E 21:22:43 10° NNE
SPOT 5 4.2 21:17:39 24° WSW 21:18:35 26° W 21:22:19 10° NW
Geosat 4.3 21:18:02 49° E 21:18:52 55° NE 21:23:47 10° NNW
Cosmos 1066 Rocket 4.3 21:14:47 10° NNW 21:20:25 69° W 21:21:30 55° SSW
Cosmos 1486 Rocket 3.8 21:22:06 71° SSW 21:22:42 87° ESE 21:27:56 10° NNE
Meteor 2-11 Rocket 4.5 21:22:22 55° SE 21:23:11 60° E 21:29:13 10° NNE
BREEZE-M DEB (TANK) 4.0 21:13:58 10° W 21:27:56 69° SSW 21:28:57 57° SE
CRYOSAT 2 4.3 21:24:58 10° N 21:29:53 78° W 21:30:14 73° SW
Cosmos 1733 Rocket 3.5 21:29:41 52° W 21:29:59 54° WNW 21:34:22 10° N
ERBS 4.2 21:28:30 10° NW 21:30:13 28° NW 21:30:13 28° NW
Cosmos 489 Rocket 4.4 21:29:16 10° NNW 21:35:35 75° WSW 21:36:44 60° S
Tsikada Rocket 4.4 21:30:52 10° NNW 21:37:02 55° W 21:38:46 42° SW
Cosmos 773 Rocket 4.4 21:32:06 10° NNW 21:37:06 48° ENE 21:37:32 47° ENE
Cosmos 968 Rocket 3.3 21:37:25 74° SW 21:37:50 82° WNW 21:43:01 10° NNE
Lacrosse 4 Rocket 2.4 21:37:37 38° W 21:38:30 44° NW 21:42:31 10° NNE
Cosmos 2227 Rocket 3.9 21:40:11 19° E 21:40:11 19° E 21:43:04 10° NE
ALOS 2 3.2 21:39:37 47° NE 21:39:37 47° NE 21:43:29 10° N
USA 267 3.5 21:32:56 10° NE 21:39:27 69° NNW 21:45:56 10° WSW
Cosmos 2219 Rocket 2.3 21:38:20 10° NW 21:43:57 61° WSW 21:44:23 59° SW
SL-4 R/B 3.7 21:41:24 10° WNW 21:42:58 23° WNW 21:42:58 23° WNW
Cosmos 1782 Rocket 4.2 21:58:07 48° NE 21:58:07 48° NE 22:01:25 10° NNE
Spot 4 4.1 21:58:19 60° W 21:58:19 60° W 22:02:54 10° NNW
Cosmos 1842 4.3 21:59:06 10° N 22:01:52 44° NNW 22:01:52 44° NNW
Cosmos 1908 Rocket 4.1 22:04:49 55° NW 22:04:49 55° NW 22:08:36 10° N
Terra 4.1 22:06:49 14° W 22:07:39 14° W 22:10:14 10° NW
Cosmos 2344 4.4 22:00:26 10° NW 22:09:40 78° NE 22:17:17 28° SE
Cosmos 2360 Rocket 4.3 22:09:54 10° WNW 22:12:46 14° W 22:13:33 14° WSW
USA 234 4.0 22:16:20 35° WSW 22:16:20 35° WSW 22:21:54 10° WNW
SL-16 R/B 3.2 22:10:47 10° NNW 22:16:09 40° NE 22:17:41 34° E
Cosmos 1354 Rocket 4.3 22:23:57 56° W 22:24:29 59° WNW 22:29:47 10° NNE
ATLAS 3B R/B 3.9 22:18:39 10° W 22:24:44 37° NNW 22:30:56 10° NE
Cosmos 1975 Rocket 3.8 22:23:44 10° NNW 22:27:17 48° NW 22:27:17 48° NW
Cosmos 2297 Rocket 2.4 22:32:12 57° E 22:32:12 57° E 22:37:18 10° NE
Meteor 1-21 4.4 22:27:08 10° NNW 22:32:50 61° W 22:33:00 60° WSW
Thor Agena Rocket 4.2 22:29:35 10° N 22:34:26 45° WNW 22:35:03 43° W
Cosmos 1975 4.2 22:36:14 36° NW 22:36:14 36° NW 22:39:12 10° N
Meteor 2-9 Rocket 4.3 22:35:06 64° WSW 22:35:31 67° WNW 22:41:18 10° N
Nimbus 7 Rocket 4.4 22:30:33 10° NNE 22:36:26 73° WNW 22:37:08 65° WSW
In-Cosmos 22 4.2 22:31:13 10° N 22:36:45 67° ENE 22:36:50 66° E
Cosmos 1980 3.8 22:31:39 10° NNW 22:36:58 60° W 22:36:58 60° W
Cosmos 1777 Rocket 4.1 22:39:10 73° ENE 22:39:10 73° ENE 22:44:04 10° NNE
COSMOS 2428 4.1 22:35:28 10° NW 22:39:48 26° W 22:39:48 26° W
Timation 2 Rocket 3.8 22:39:51 68° WSW 22:40:36 79° WNW 22:46:39 10° NNE
Cosmos 1025 Rocket 3.8 22:39:18 10° N 22:42:31 50° N 22:42:31 50° N
Cosmos 2237 Rocket 2.4 22:39:27 10° NW 22:44:34 55° W 22:44:34 55° W
SJ 16-02 3.2 22:47:38 23° ENE 22:47:38 23° ENE 22:50:01 10° NE
Cosmos 2219 3.0 22:46:31 85° E 22:46:31 85° E 22:52:06 10° NNE
Cosmos 1464 Rocket 4.1 22:46:12 58° WSW 22:47:01 64° WNW 22:53:11 10° N
Meteor 2-13 Rocket 4.5 22:42:57 10° N 22:49:03 68° ENE 22:49:46 62° ESE
Okean 2 Rocket 3.6 22:53:44 58° N 22:53:44 58° N 22:57:24 10° N
Nadezhda 4 Rocket 3.9 22:48:13 10° NNW 22:54:27 68° W 22:54:56 66° WSW
Cosmos 2333 Rocket 4.2 22:54:22 10° WNW 22:57:19 16° W 22:57:19 16° W
Cosmos 1674 4.3 22:54:45 10° N 22:57:04 32° NNE 22:57:04 32° NNE
CZ-2D R/B 4.2 23:00:47 10° NE 23:04:09 16° E 23:05:05 16° E
Cosmos 923 Rocket 4.0 23:02:24 10° NNW 23:07:42 79° NE 23:07:42 79° NE
Cosmos 1092 Rocket 3.8 23:10:02 10° NNW 23:16:14 74° W 23:16:44 70° SW
NOSS 3-1 (C) 3.9 23:16:43 42° ESE 23:16:43 42° ESE 23:22:11 10° NE
Helios 1A 4.4 23:18:09 32° NW 23:18:09 32° NW 23:20:50 10° NNW
Cosmos 1626 3.9 23:16:05 10° N 23:18:35 29° NE 23:18:35 29° NE
Cosmos 2034 Rocket 4.4 23:19:27 47° WSW 23:20:27 51° WNW 23:26:39 10° N
USA 267 4.3 23:15:50 10° ENE 23:21:58 44° N 23:28:06 10° WNW
Cosmos 2227 Rocket 2.2 23:22:00 68° W 23:22:25 72° WNW 23:28:07 10° NNE
Cosmos 1461 3.7 23:24:34 50° NE 23:24:34 50° NE 23:28:04 10° NE
Cosmos 2151 Rocket 4.3 23:26:48 47° NW 23:26:48 47° NW 23:30:21 10° N
Resurs 1-4 Rocket 3.4 23:30:20 10° NE 23:34:49 28° E 23:35:32 27° ESE
Meteor 2-5 Rocket 3.5 23:30:51 10° N 23:36:29 83° E 23:36:52 76° SE
Cosmos 1805 4.2 23:45:52 45° N 23:45:52 45° N 23:48:39 10° N
Cosmos 158 Rocket 4.1 23:41:36 10° NNW 23:46:39 64° W 23:46:39 64° W
Cosmos 2082 3.6 23:48:47 69° WSW 23:49:19 75° WNW 23:54:58 10° NNE
Spot 1 4.5 23:49:42 55° NE 23:49:42 55° NE 23:53:21 10° N
Cosmos 1937 Rocket 3.9 23:49:29 49° ESE 23:49:43 50° ESE 23:54:51 10° NNE
Cosmos 990 Rocket 3.9 23:50:28 73° ESE 23:50:31 73° ESE 23:55:41 10° NNE
Helios 1B rocket 3.0 23:50:58 10° N 23:54:18 52° NNW 23:54:18 52° NNW
PSLV R/B 4.4 23:50:37 10° N 23:55:06 46° WNW 23:55:06 46° WNW
